星链-30803 (STARLINK-30803 )

导读

STARLINK-30803是美国SpaceX公司星链(Starlink)星座的成员,于2023年10月29日发射入轨。星链项目旨在通过近地轨道卫星群为全球提供高速互联网接入服务,该卫星采用平板设计,搭载Ku/Ka波段通信载荷与霍尔推进器,具备自主避撞能力,服役后将补充星座网络,为偏远地区、海洋等场景提供宽带连接,寿命结束后会主动离轨在大气层烧毁。

基本信息
目录编号:
58157
目录名称:
STARLINK-30803
国际标识:
2023-166H
轨道中心:
EARTH
卫星名称:
星链-30803
卫星全名:
星链-30803 (STARLINK-30803 )
卫星状态:
在轨 (已飞行1048 天)
发射日期:
2023-10-29 UTC
国别 :
美国 (US)
星等 :
--
该卫星已列入 空间交会检测服务 Space Conjunction Data Service (SCDS) ,当前飞行风险评估等级: 无高风险
轨道信息
数据来源 国际轨道数据
星历时间: 2026-09-11T06:50:19+0800
22小时前
查看轨道信息
半长轴: 6848.854km
偏心率: 0.0001226
轨道倾角: 53.161°
近地点辐角 95.583°
升交点赤经 77.662°
平近点角 264.531°
近地点: 469.877km
远地点: 471.557km
周期: 94.013分钟
每日圈数: 15.317078
详细信息
固有亮度:
5
最大亮度:
0.3
卫星平台:
Starlink v2.0 mini
覆盖范围:
全球
运营商:
太空探索技术公司
运营商所在国:
美国
制造商(研发单位):
太空探索技术公司
制造商所在国:
美国
使用方式:
暂无
卫星简介
星链(Starlink)计划是由太空探索技术公司(SpaceX)提出的一个巨型低轨卫星互联网星座项目,计划在2019年至2024年间在太空搭建由约1.2万颗卫星组成的“星链”网络,其中1584颗将部署在地球上空550千米处的近地轨道,并从2020年开始工作。该卫星仍在工作。
2D轨道图
3D轨道图
轨道高度分析图
轨道倾角分析图
轨道综合分析图
查看轨道综合分析图
交会数据列表
事件ID 空间交会对象 最接近时刻(TCA) 交会距离 交会风险概率(CRP) 交会风险指数(CRI) 操作
CDM_260905-151705-815706-966222
2026-09-05T
15:17:21+0000
2.860 km
极远距离
1.417351E-6 低风险 0.38
CDM_260911-210605-815706-759822
2026-09-11T
21:06:45+0000
2.776 km
极远距离
1.364392E-6 低风险 0.38
CDM_260904-234705-815706-959921
2026-09-04T
23:47:39+0000
2.854 km
极远距离
1.05652E-6 低风险 0.35
CDM_260913-200105-815706-538121
2026-09-13T
20:01:17+0000
2.955 km
极远距离
1.014955E-6 低风险 0.35
与全量物体交会距离演化趋势
与全量物体交会风险概率演化趋势